User: anonymous   Login
Location: Unspecified
(0.0000°N, 0.0000°E)
Time: 11:09:25
(UTC+00:00)
Language:

Transit 2A - Orbit

View from above orbital plane
View from above orbital plane
View from above satellite
View from above satellite

Ground track
Ground track

The orbit data is extracted from the following two-line orbital elements,

1 00045U 60007A   15060.53383784  .00000633  00000-0  18240-3 0  9995
2 00045 066.6935 078.8888 0263915 283.5082 073.6740 14.33270656845367
Epoch (UTC): 01 March 2015 12:48:43
Eccentricity: 0.0263915
inclination: 66.6935°
perigee height: 592 km
apogee height: 970 km
right ascension of ascending node: 78.8888°
argument of perigee: 283.5082°
revolutions per day: 14.33270656
mean anomaly at epoch: 73.6740°
orbit number at epoch: 84536

The dashed part of the orbit path shows where the satellite is in the earth's shadow,  

DLR